Flag for France Weather past 2 weeks in Chalon-sur-Saône, France

Now
28 °F

Light fog.


Feels Like: 25 °F
Forecast: 30 / 44 °F
Wind: 3 mph from Northeast

Location: Dole Tavaux

Current Time: Dec 23, 2014 at 4:00:49 AM

Latest Report: Dec 23, 2014 at 3:30 AM


Visibility: 1 mi

Pressure: 30.39 "Hg

Humidity: 100%

Dew point: 28 °F

Location of Chalon-sur-SaôneLocation

Historic Weather in Chalon-sur-Saône — Graph

°F

Chalon-sur-Saône temperature yesterday

Maximum temperature yesterday: 45 °F (at 1:30 PM)
Minimum temperature yesterday: 30 °F (at 10:30 PM)
Average temperature yesterday: 38 °F

Past Weeks' High & Low Weather Summary

 TemperatureHumidityPressure
High57 °F (Dec 13, 12:30 PM)100% (Dec 8, 3:00 AM)30.60 "Hg (Dec 8, 3:00 AM)
Low28 °F (Dec 10, 2:00 AM)57% (Dec 20, 3:30 PM)29.83 "Hg (Dec 13, 2:30 AM)
Average44 °F88%30.19 "Hg
* Reported Dec 8 3:00 AM — Dec 23 3:00 AM, Chalon-sur-Saône, Weather by CustomWeather, © 2014

Note: Actual official high and low records may vary slightly from our data, if they occured in-between our weather recording intervals... More about our weather records

Advertising

Chalon-sur-Saône weather history for previous 24 hours

 ConditionsComfort  
Time TempWeatherWind HumidityBarometerVisibility
3:00 AM
Dec 23
28 °FLight fog.3 mph100%30.42 "Hg1 mi
2:30 AM28 °FIce fog.1 mph100%30.42 "Hg2 mi
2:00 AM28 °FIce fog.3 mph100%30.39 "Hg2 mi
1:30 AM28 °FIce fog.3 mph100%30.42 "Hg0 mi
1:00 AM28 °FIce fog.3 mph100%30.39 "Hg2 mi
12:30 AM30 °FIce fog.3 mph93%30.42 "Hg1 mi
12:00 AM30 °FIce fog.3 mph93%30.42 "Hg2 mi
11:30 PM
Dec 22
30 °FIce fog.2 mph100%30.42 "Hg2 mi
11:00 PM30 °FIce fog.2 mph100%30.42 "Hg2 mi
10:30 PM30 °FIce fog.3 mph100%30.42 "Hg2 mi
10:00 PM32 °FIce fog.3 mph93%30.42 "Hg2 mi
9:30 PM32 °FIce fog.3 mph93%30.42 "Hg1 mi
9:00 PM32 °FFog.3 mph100%30.42 "Hg1 mi
8:30 PM34 °FClear.3 mph93%30.42 "Hg4 mi
8:00 PM34 °FLight fog.2 mph93%30.42 "Hg1 mi
7:30 PM36 °FFog.2 mph93%30.42 "Hg3 mi
7:00 PM34 °FFog.2 mph93%30.42 "Hg2 mi
6:30 PM37 °FClear.1 mph87%30.42 "HgN/A
6:00 PM37 °FClear.No wind93%30.42 "HgN/A
5:30 PM37 °FClear.3 mph93%30.42 "HgN/A
5:00 PM39 °FClear.5 mph87%30.42 "HgN/A
4:30 PM41 °FClear.3 mph87%30.42 "HgN/A
4:00 PM41 °FClear.6 mph87%30.45 "HgN/A
3:30 PM43 °FClear.7 mph81%30.45 "HgN/A
3:00 PM43 °FClear.7 mph87%30.45 "HgN/A
2:30 PM43 °FPassing clouds.8 mph81%30.45 "HgN/A
2:00 PM45 °FClear.7 mph76%30.45 "HgN/A
1:30 PM45 °FPassing clouds.7 mph76%30.48 "HgN/A
1:00 PM43 °FClear.6 mph81%30.48 "HgN/A
12:30 PM43 °FClear.7 mph76%30.48 "HgN/A
12:00 PM41 °FClear.9 mph87%30.51 "HgN/A
11:30 AM41 °FClear.6 mph81%30.51 "HgN/A
11:00 AM37 °FClear.6 mph93%30.51 "HgN/A
10:30 AM37 °FClear.3 mph87%30.54 "HgN/A
10:00 AM36 °FClear.2 mph93%30.51 "HgN/A
9:30 AM36 °FClear.3 mph87%30.51 "Hg4 mi
9:00 AM34 °FClear.2 mph93%30.51 "HgN/A
8:30 AM32 °FClear.3 mph93%30.51 "HgN/A
8:00 AM32 °FClear.2 mph93%30.51 "HgN/A
7:30 AM34 °FClear.2 mph93%30.51 "HgN/A
7:00 AM34 °FClear.3 mph93%30.51 "HgN/A
6:30 AM34 °FClear.2 mph93%30.51 "HgN/A
6:00 AM36 °FPassing clouds.3 mph87%30.51 "HgN/A
5:30 AM37 °FOvercast.2 mph87%30.51 "HgN/A
4:30 AM39 °FOvercast.2 mph87%30.51 "HgN/A
4:00 AM39 °FOvercast.5 mph87%30.51 "HgN/A
Weather by CustomWeather, © 2014

See weather overviewHow to use our weather pages